User: anonymous   Login
Location: Young's Pond
(41.2695°N, 72.7766°W)
Time: 03:02:26
(UTC-05:00)
Language:

Spot 4 - Orbit

View from above orbital plane
View from above orbital plane
View from above satellite
View from above satellite

Ground track
Ground track

The orbit data is extracted from the following two-line orbital elements,

1 25260U 98017A   14327.54214408  .00000798  00000-0  20407-3 0  5036
2 25260 098.4429 032.6895 0011688 267.9581 092.0276 14.53096262865809
Epoch (UTC): 23 November 2014 13:00:41
Eccentricity: 0.0011688
inclination: 98.4429°
perigee height: 707 km
apogee height: 724 km
right ascension of ascending node: 32.6895°
argument of perigee: 267.9581°
revolutions per day: 14.53096262
mean anomaly at epoch: 92.0276°
orbit number at epoch: 86580

The dashed part of the orbit path shows where the satellite is in the earth's shadow,  

DLR